Вернуться в каталог

OPS 6394

FLTSATCOM 4

АктивенВоенныеGEO
NORAD 12046·PAYLOAD·🇺🇸 United States

Запущен Oct 31, 1980 с Cape Canaveral Space Force Station

Loading…

TLE

СвежийSource: Space-Track

Эпоха: Sep 14, 2026, 09:22 UTC

1 12046U 80087A   26257.39089398 -.00000236  00000-0  00000-0 0  9999
2 12046   7.8015 303.9330 0001524 182.9230 176.9981  0.98954483131055

Отслеживайте OPS 6394 в реальном времени с AllMySat

Download on the App Store